06.05.2024;03:00;3
06.05.2024;02:00;4
06.05.2024;01:00;5
05.05.2024;24:00;4
05.05.2024;23:00;4
05.05.2024;22:00;2
05.05.2024;21:00;2
05.05.2024;20:00;2
05.05.2024;19:00;2
05.05.2024;18:00;2
05.05.2024;17:00;2
05.05.2024;16:00;3
05.05.2024;15:00;2
05.05.2024;14:00;2
05.05.2024;13:00;2
05.05.2024;12:00;2
05.05.2024;11:00;4
05.05.2024;10:00;6
05.05.2024;09:00;8
05.05.2024;08:00;11
05.05.2024;07:00;10
05.05.2024;06:00;9
05.05.2024;05:00;8
05.05.2024;04:00;7
05.05.2024;03:00;7
05.05.2024;02:00;7
05.05.2024;01:00;9
04.05.2024;24:00;8
04.05.2024;23:00;6
04.05.2024;22:00;6
04.05.2024;21:00;6
04.05.2024;20:00;5
04.05.2024;19:00;2
04.05.2024;18:00;3
04.05.2024;17:00;4
04.05.2024;16:00;4
04.05.2024;15:00;5
04.05.2024;14:00;5
04.05.2024;13:00;9
04.05.2024;12:00;9
04.05.2024;11:00;8
04.05.2024;10:00;9
04.05.2024;09:00;9
04.05.2024;08:00;9
04.05.2024;07:00;6
04.05.2024;06:00;5
04.05.2024;05:00;2
04.05.2024;04:00;2
04.05.2024;03:00;2
04.05.2024;02:00;5
04.05.2024;01:00;6
03.05.2024;24:00;3
03.05.2024;23:00;3
03.05.2024;22:00;4
03.05.2024;21:00;5
03.05.2024;20:00;5
03.05.2024;19:00;4
03.05.2024;18:00;4
03.05.2024;17:00;4
03.05.2024;16:00;4
03.05.2024;15:00;4
03.05.2024;14:00;4
03.05.2024;13:00;4
03.05.2024;12:00;4
03.05.2024;11:00;3
03.05.2024;10:00;2
03.05.2024;09:00;2
03.05.2024;08:00;2
03.05.2024;07:00;2
03.05.2024;06:00;2
03.05.2024;05:00;2
03.05.2024;04:00;3
03.05.2024;03:00;9
03.05.2024;02:00;5
03.05.2024;01:00;6
02.05.2024;24:00;6
02.05.2024;23:00;13
02.05.2024;22:00;9
02.05.2024;21:00;24
02.05.2024;20:00;23
02.05.2024;19:00;18
02.05.2024;18:00;24
02.05.2024;17:00;22
02.05.2024;16:00;17
02.05.2024;15:00;16
02.05.2024;14:00;18
02.05.2024;13:00;18
02.05.2024;12:00;19
02.05.2024;11:00;17
02.05.2024;10:00;15
02.05.2024;09:00;11
02.05.2024;08:00;14
02.05.2024;07:00;17
02.05.2024;06:00;16
02.05.2024;05:00;14
02.05.2024;04:00;15
02.05.2024;03:00;20
02.05.2024;02:00;16
02.05.2024;01:00;16
01.05.2024;24:00;17
01.05.2024;23:00;16
01.05.2024;22:00;14
01.05.2024;21:00;16
01.05.2024;20:00;13
01.05.2024;19:00;13
01.05.2024;18:00;11
01.05.2024;17:00;12
01.05.2024;16:00;18
01.05.2024;15:00;22
01.05.2024;14:00;17
01.05.2024;13:00;17
01.05.2024;12:00;18
01.05.2024;11:00;19
01.05.2024;10:00;15
01.05.2024;09:00;20
01.05.2024;08:00;21
01.05.2024;07:00;22
01.05.2024;06:00;7
01.05.2024;05:00;21
01.05.2024;04:00;17
01.05.2024;03:00;19
01.05.2024;02:00;31
01.05.2024;01:00;12
